QPF
0.00 0.00 0.00 0.00 0.00 0.00 0.00 0.00 0.00 0.00 0.00 0.00 0.00 0.00 0.00 0.00 0.00 0.00 0.00 0.00 0.00 0.00 0.00 0.00 0.00 0.00 0.00 0.01 0.04 0.12 0.07 0.12 0.07 0.07 0.10 0.05 0.10 0.09 0.04 0.01 0.01 0.01 0.01 0.00
0.00 0.00 0.00 0.00 0.00 0.00 0.00 0.00 0.00 0.00 0.00 0.00 0.00 0.00 0.00 0.00 0.00 0.00 0.00 0.00 0.00 0.00 0.00 0.00 0.00 0.00 0.00 0.02 0.05 0.05 0.05 0.06 0.05 0.05 0.06 0.06 0.05 0.04 0.03 0.02 0.02 0.01 0.01 0.01
0.00 0.00 0.00 0.00 0.00 0.00 0.00 0.00 0.00 0.00 0.00 0.00 0.00 0.00 0.00 0.00 0.00 0.00 0.00 0.00 0.00 0.00 0.00 0.00 0.00 0.00 0.00 0.00 0.02 0.03 0.03 0.03 0.02 0.02 0.03 0.03 0.04 0.03 0.02 0.02 0.01 0.01 0.00 0.00
0.00 0.00 0.00 0.00 0.00 0.00 0.00 0.00 0.00 0.00 0.00 0.00 0.00 0.00 0.00 0.00 0.00 0.00 0.00 0.00 0.00 0.00 0.00 0.00 0.00 0.00 0.00 0.00 0.01 0.01 0.01 0.01 0.01 0.01 0.02 0.03 0.04 0.02 0.02 0.01 0.00 0.00 0.00 0.00
0.00 0.00 0.00 0.00 0.00 0.00 0.00 0.00 0.00 0.00 0.00 0.00 0.00 0.00 0.00 0.00 0.00 0.00 0.00 0.00 0.00 0.00 0.00 0.00 0.00 0.00 0.00 0.00 0.00 0.00 0.00 0.01 0.01 0.00 0.02 0.03 0.01 0.00 0.00 0.00 0.00 0.00 0.00 0.00
0.00 0.00 0.00 0.00 0.00 0.00 0.00 0.00 0.00 0.00 0.00 0.00 0.00 0.00 0.00 0.00 0.00 0.00 0.00 0.00 0.00 0.00 0.00 0.00 0.00 0.00 0.01 0.00 0.00 0.00 0.01 0.01 0.01 0.01 0.01 0.01 0.00 0.00 0.00 0.00 0.00 0.00 0.00 0.00
0.00 0.00 0.00 0.00 0.00 0.00 0.00 0.00 0.00 0.00 0.00 0.00 0.00 0.00 0.00 0.00 0.00 0.00 0.00 0.00 0.00 0.00 0.00 0.00 0.00 0.00 0.00 0.00 0.00 0.00 0.00 0.00 0.00 0.00 0.00 0.00 0.00 0.00 0.00 0.00 0.00 0.00 0.00 0.00
0.00 0.00 0.00 0.00 0.00 0.00 0.00 0.00 0.00 0.00 0.00 0.00 0.00 0.00 0.00 0.00 0.00 0.00 0.00 0.00 0.00 0.00 0.00 0.00 0.00 0.00 0.00 0.00 0.00 0.00 0.00 0.00 0.00 0.00 0.00 0.00 0.00 0.00 0.00 0.00 0.00 0.00 0.00 0.00
0.00 0.00 0.00 0.01 0.01 0.01 0.00 0.00 0.00 0.00 0.00 0.00 0.00 0.00 0.00 0.00 0.00 0.00 0.00 0.00 0.00 0.00 0.00 0.00 0.00 0.00 0.00 0.00 0.00 0.00 0.00 0.00 0.00 0.00 0.00 0.00 0.00 0.00 0.00 0.00 0.00 0.00 0.00 0.00
0.00 0.00 0.00 0.00 0.00 0.00 0.00 0.00 0.00 0.00 0.00 0.00 0.00 0.00 0.00 0.00 0.00 0.00 0.00 0.00 0.00 0.00 0.00 0.00 0.00 0.00 0.00 0.00 0.00 0.00 0.00 0.00 0.00 0.00 0.00 0.00 0.00 0.00 0.00 0.00 0.00 0.00 0.00 0.00
0.00 0.00 0.00 0.00 0.00 0.00 0.00 0.00 0.00 0.00 0.00 0.00 0.00 0.00 0.00 0.00 0.00 0.00 0.00 0.00 0.00 0.00 0.00 0.00 0.00 0.00 0.00 0.00 0.00 0.00 0.00 0.00 0.00 0.00 0.00 0.00 0.00 0.00 0.00 0.00 0.00 0.00 0.00 0.00
0.00 0.00 0.00 0.00 0.00 0.00 0.00 0.00 0.00 0.00 0.00 0.00 0.00 0.00 0.00 0.00 0.00 0.00 0.00 0.00 0.00 0.00 0.00 0.00 0.00 0.00 0.00 0.00 0.00 0.00 0.00 0.00 0.00 0.00 0.00 0.00 0.00 0.00 0.00 0.00 0.00 0.00 0.00 0.00
0.00 0.00 0.00 0.00 0.00 0.00 0.00 0.00 0.00 0.00 0.00 0.00 0.00 0.00 0.00 0.00 0.00 0.00 0.00 0.00 0.00 0.00 0.00 0.00 0.00 0.00 0.00 0.00 0.00 0.00 0.00 0.00 0.00 0.00 0.00 0.00 0.00 0.00 0.00 0.00 0.00 0.00 0.00 0.00
0.01 0.00 0.00 0.00 0.00 0.00 0.00 0.00 0.00 0.00 0.00 0.00 0.00 0.00 0.00 0.00 0.00 0.00 0.00 0.00 0.00 0.00 0.00 0.00 0.00 0.00 0.00 0.00 0.00 0.00 0.00 0.00 0.00 0.00 0.00 0.00 0.00 0.00 0.00 0.00 0.00 0.00 0.00 0.00
0.00 0.00 0.00 0.00 0.00 0.00 0.00 0.00 0.00 0.00 0.00 0.00 0.00 0.00 0.00 0.00 0.00 0.00 0.00 0.00 0.00 0.00 0.00 0.00 0.00 0.00 0.00 0.00 0.00 0.00 0.00 0.00 0.00 0.00 0.00 0.00 0.00 0.00 0.00 0.00 0.00 0.00 0.00 0.00
0.00 0.00 0.00 0.00 0.00 0.00 0.00 0.00 0.00 0.00 0.00 0.00 0.00 0.00 0.00 0.00 0.00 0.00 0.00 0.00 0.00 0.00 0.00 0.00 0.00 0.00 0.00 0.00 0.00 0.00 0.00 0.00 0.00 0.00 0.00 0.00 0.00 0.00 0.00 0.00 0.00 0.00 0.00 0.00
0.00 0.00 0.00 0.00 0.00 0.00 0.00 0.00 0.00 0.00 0.00 0.00 0.00 0.00 0.00 0.00 0.00 0.00 0.00 0.00 0.00 0.00 0.00 0.00 0.00 0.00 0.00 0.00 0.00 0.00 0.00 0.00 0.00 0.00 0.00 0.00 0.00 0.00 0.00 0.00 0.00 0.00 0.00 0.00
0.00 0.00 0.00 0.01 0.00 0.00 0.00 0.00 0.00 0.00 0.00 0.00 0.00 0.00 0.00 0.00 0.00 0.00 0.00 0.00 0.00 0.00 0.00 0.00 0.00 0.00 0.00 0.00 0.00 0.00 0.00 0.00 0.00 0.00 0.00 0.00 0.00 0.00 0.00 0.00 0.00 0.00 0.00 0.00
0.00 0.00 0.00 0.00 0.00 0.00 0.00 0.00 0.00 0.00 0.00 0.00 0.00 0.00 0.00 0.00 0.00 0.00 0.00 0.00 0.00 0.00 0.00 0.00 0.00 0.00 0.00 0.00 0.00 0.00 0.00 0.00 0.00 0.00 0.00 0.00 0.00 0.00 0.00 0.00 0.00 0.00 0.00 0.00
0.00 0.00 0.00 0.00 0.00 0.00 0.00 0.00 0.00 0.00 0.00 0.00 0.00 0.00 0.00 0.00 0.00 0.00 0.00 0.00 0.00 0.00 0.00 0.00 0.00 0.00 0.00 0.00 0.00 0.00 0.00 0.00 0.00 0.00 0.00 0.00 0.00 0.00 0.00 0.00 0.00 0.00 0.00 0.00
0.00 0.00 0.00 0.00 0.00 0.00 0.00 0.00 0.00 0.00 0.00 0.00 0.00 0.00 0.00 0.00 0.00 0.00 0.00 0.00 0.00 0.00 0.00 0.00 0.00 0.00 0.00 0.00 0.00 0.00 0.00 0.00 0.00 0.00 0.00 0.00 0.00 0.00 0.00 0.00 0.00 0.00 0.00 0.00
0.00 0.00 0.00 0.00 0.00 0.00 0.00 0.00 0.00 0.00 0.00 0.00 0.00 0.00 0.00 0.00 0.00 0.00 0.00 0.00 0.00 0.00 0.00 0.00 0.00 0.00 0.00 0.00 0.00 0.00 0.00 0.00 0.00 0.00 0.00 0.00 0.00 0.00 0.00 0.00 0.00 0.00 0.00 0.00
0.00 0.00 0.00 0.00 0.00 0.00 0.00 0.00 0.00 0.00 0.00 0.00 0.00 0.00 0.00 0.00 0.00 0.00 0.00 0.00 0.00 0.00 0.00 0.00 0.00 0.00 0.00 0.00 0.00 0.00 0.00 0.00 0.00 0.00 0.00 0.00 0.00 0.00 0.00 0.00 0.00 0.00 0.00 0.00
0.00 0.00 0.00 0.00 0.00 0.00 0.00 0.00 0.00 0.00 0.00 0.00 0.00 0.00 0.00 0.00 0.00 0.00 0.00 0.00 0.00 0.00 0.00 0.00 0.00 0.00 0.00 0.00 0.00 0.00 0.00 0.00 0.00 0.00 0.00 0.00 0.00 0.00 0.00 0.00 0.00 0.00 0.00 0.00
0.00 0.00 0.00 0.00 0.00 0.00 0.00 0.00 0.00 0.00 0.00 0.00 0.00 0.00 0.00 0.00 0.00 0.00 0.00 0.00 0.00 0.00 0.00 0.00 0.00 0.00 0.00 0.00 0.00 0.00 0.00 0.00 0.00 0.00 0.00 0.00 0.00 0.00 0.00 0.00 0.00 0.00 0.00 0.00
0.00 0.00 0.00 0.00 0.00 0.00 0.00 0.00 0.00 0.00 0.00 0.00 0.00 0.00 0.00 0.00 0.00 0.00 0.00 0.00 0.00 0.00 0.00 0.00 0.00 0.00 0.00 0.00 0.00 0.00 0.00 0.00 0.00 0.00 0.00 0.00 0.00 0.00 0.00 0.00 0.00 0.00 0.00 0.00
0.00 0.00 0.00 0.00 0.00 0.00 0.00 0.00 0.00 0.00 0.00 0.00 0.00 0.00 0.00 0.00 0.00 0.00 0.00 0.00 0.00 0.00 0.00 0.00 0.00 0.00 0.00 0.00 0.00 0.00 0.00 0.00 0.00 0.00 0.00 0.00 0.00 0.00 0.00 0.00 0.00 0.00 0.00 0.00
MSLP
1003.60 1002.52 1002.13 1001.36 1001.25 1001.53 1001.80 1002.35 1002.78 1002.95 1002.36 1001.91 1001.49 1001.07 1000.85 1000.94 1001.04 1000.99 1001.31 1001.58 1001.71 1001.99 1002.60 1002.97 1002.96 1003.17 1003.46 1004.30 1005.12 1006.08 1007.13 1008.11 1008.81 1009.48 1010.20 1010.92 1011.65 1012.30 1012.71 1013.71 1014.43 1014.77 1015.76 1016.56
1003.58 1002.79 1001.72 1000.98 1001.27 1000.94 1000.81 1001.42 1001.48 1001.43 1001.08 1000.36 1000.09 1000.03 1000.28 1000.52 1000.54 1000.61 1000.68 1000.89 1001.24 1001.47 1002.22 1002.84 1002.96 1003.21 1003.98 1005.05 1005.48 1006.02 1007.01 1008.17 1008.92 1009.56 1010.18 1010.87 1011.72 1012.36 1013.27 1014.11 1014.74 1015.17 1016.01 1016.69
1005.22 1003.31 1002.19 1000.91 998.91 1000.25 1000.49 1000.48 1000.43 1000.59 1000.45 999.67 999.48 999.27 999.28 999.46 999.78 999.87 1000.02 1000.25 1000.62 1001.09 1001.58 1002.20 1002.62 1002.76 1003.62 1004.76 1005.39 1006.22 1007.05 1007.92 1008.49 1009.18 1010.17 1011.05 1012.04 1012.83 1013.71 1014.51 1014.98 1015.70 1016.49 1016.98
1007.68 1005.22 1002.84 999.05 999.32 999.41 999.74 999.52 999.56 999.45 999.56 999.07 998.71 998.49 998.58 998.52 998.71 998.86 999.24 999.72 1000.00 1000.51 1001.10 1001.73 1002.46 1003.09 1003.69 1004.74 1005.70 1006.48 1007.35 1007.94 1008.66 1009.47 1010.42 1011.28 1011.97 1013.03 1014.00 1014.31 1014.99 1015.80 1016.51 1017.13
1009.34 1006.44 1002.86 1000.31 999.68 999.33 999.36 998.99 998.85 998.46 998.71 998.51 998.28 998.41 998.06 997.88 997.96 998.27 998.38 998.87 999.72 999.89 1000.76 1001.85 1002.74 1003.53 1004.14 1004.96 1005.71 1006.35 1007.12 1007.78 1008.52 1009.30 1010.24 1011.29 1012.47 1013.08 1013.81 1014.51 1015.37 1015.99 1016.63 1017.37
1009.32 1008.05 1004.54 1000.46 999.59 998.64 998.82 998.67 998.16 998.00 998.05 998.32 998.09 998.26 998.44 997.83 997.72 998.20 998.55 999.20 1000.00 1000.79 1001.40 1002.11 1003.14 1003.81 1004.53 1005.40 1006.13 1006.83 1007.35 1008.21 1009.04 1009.83 1010.84 1011.75 1012.36 1013.22 1014.00 1014.69 1015.42 1016.25 1017.18 1017.87
1008.49 1007.53 1004.11 1001.09 999.84 998.62 999.55 999.30 998.54 998.43 997.93 997.95 998.08 998.00 997.59 997.78 998.40 998.62 998.72 999.53 1000.32 1001.00 1001.61 1002.47 1003.34 1004.15 1005.07 1006.00 1006.78 1007.49 1008.13 1008.69 1009.44 1010.21 1011.01 1011.86 1012.73 1013.44 1014.15 1014.97 1015.81 1016.91 1018.08 1018.99
1007.00 1006.39 1004.27 1000.84 999.46 1000.37 1001.04 1000.10 999.64 998.75 998.38 997.98 997.81 997.68 997.81 997.80 998.53 999.05 999.62 1000.29 1000.88 1001.38 1002.23 1002.83 1003.29 1004.10 1005.43 1006.44 1007.13 1007.92 1008.78 1009.49 1010.21 1010.91 1011.51 1012.23 1013.00 1013.85 1014.70 1015.64 1016.72 1017.82 1018.79 1019.89
1005.00 1004.41 1003.03 1000.70 999.76 1000.34 1000.79 1000.38 999.67 999.51 999.14 998.59 998.54 998.27 998.25 998.70 998.98 999.40 999.68 1000.56 1001.28 1001.87 1002.96 1003.73 1004.01 1004.38 1005.42 1006.55 1007.24 1008.23 1009.17 1010.18 1011.01 1011.68 1012.36 1012.97 1013.61 1014.57 1015.63 1016.51 1017.35 1018.52 1019.36 1020.44
1003.89 1002.05 1001.68 1000.50 1000.28 999.66 999.74 999.36 999.18 999.17 999.06 999.10 999.55 999.16 999.35 998.82 999.53 999.96 1000.34 1001.22 1001.93 1002.80 1003.87 1004.67 1004.95 1005.28 1005.88 1006.90 1007.60 1008.53 1009.83 1010.90 1011.70 1012.52 1013.48 1014.22 1014.86 1015.54 1016.28 1017.20 1018.04 1018.88 1019.76 1020.67
1002.46 1001.86 1001.02 1000.22 999.72 999.06 998.96 998.74 998.48 998.93 998.94 999.44 999.71 999.74 999.25 999.46 1000.17 1000.35 1000.93 1001.99 1002.64 1003.32 1004.16 1005.08 1005.52 1006.17 1006.76 1007.34 1007.98 1009.16 1010.34 1011.52 1012.63 1013.54 1014.39 1015.54 1016.56 1017.20 1017.66 1018.28 1018.37 1019.05 1020.01 1020.74
1002.03 1000.94 1000.22 999.69 998.70 997.97 998.53 998.66 999.10 999.23 998.91 999.43 999.73 999.46 999.54 999.91 1000.32 1000.88 1000.97 1002.62 1003.42 1004.38 1005.17 1006.23 1006.78 1007.27 1007.71 1008.15 1008.63 1009.61 1011.21 1012.46 1013.51 1014.40 1015.41 1016.38 1017.26 1018.41 1018.95 1019.18 1019.51 1020.03 1020.63 1021.18
1003.49 1002.10 1000.65 1000.33 999.98 999.48 999.44 999.46 999.42 999.43 999.61 999.56 999.05 999.14 999.96 1000.55 1001.36 1001.79 1002.54 1003.77 1004.58 1005.39 1006.34 1007.37 1008.09 1008.59 1008.89 1009.07 1009.71 1010.85 1012.14 1013.45 1014.57 1015.41 1016.26 1017.08 1017.93 1018.60 1019.33 1020.17 1020.35 1020.80 1021.22 1021.66
1003.77 1001.91 1001.51 1001.45 1001.31 1001.06 1000.93 1000.78 1000.83 1000.92 1000.94 1000.81 999.95 999.49 1000.36 1001.52 1001.99 1003.17 1004.67 1005.74 1006.41 1007.40 1008.25 1008.82 1009.37 1010.42 1010.87 1010.83 1011.37 1012.46 1013.37 1014.29 1015.04 1016.09 1017.06 1017.92 1018.58 1019.22 1019.67 1020.19 1020.57 1021.10 1021.61 1022.03
1004.66 1003.40 1003.13 1002.72 1002.51 1002.39 1002.19 1002.05 1002.46 1003.06 1003.29 1002.85 1002.46 1002.10 1001.99 1002.98 1004.32 1006.03 1007.17 1007.75 1008.06 1008.95 1010.10 1010.37 1010.87 1012.28 1012.77 1012.30 1012.54 1013.71 1014.38 1015.49 1016.55 1017.29 1017.81 1018.39 1019.09 1019.68 1020.07 1020.47 1020.87 1021.21 1021.64 1022.09
1005.94 1005.27 1004.60 1004.40 1004.68 1004.35 1004.10 1004.17 1004.70 1005.56 1005.69 1005.89 1005.55 1005.76 1006.05 1006.34 1007.52 1008.70 1009.59 1010.23 1010.48 1011.05 1011.86 1012.14 1012.63 1013.61 1013.63 1013.63 1014.45 1015.51 1016.30 1017.03 1017.39 1018.24 1018.95 1019.37 1019.73 1020.24 1020.71 1021.07 1021.38 1021.56 1021.80 1022.25
1006.66 1005.96 1005.84 1005.64 1006.19 1006.64 1006.95 1007.20 1007.23 1007.79 1008.16 1008.27 1008.62 1008.76 1009.05 1009.51 1010.22 1011.27 1012.36 1012.58 1013.03 1013.68 1013.89 1013.94 1014.66 1014.98 1015.21 1015.52 1015.99 1016.79 1017.47 1018.05 1018.63 1019.16 1019.75 1020.19 1020.53 1021.01 1021.39 1021.69 1021.95 1022.19 1022.51 1022.84
1008.47 1008.20 1007.84 1007.73 1008.20 1008.86 1009.26 1009.17 1009.37 1009.72 1009.87 1010.39 1010.61 1010.77 1011.35 1011.79 1012.56 1013.45 1014.25 1014.70 1014.88 1015.37 1015.93 1016.24 1016.48 1016.83 1017.06 1017.16 1017.43 1017.77 1018.53 1018.97 1019.43 1020.03 1020.66 1021.05 1021.38 1021.69 1021.99 1022.25 1022.48 1022.73 1023.00 1023.16
1010.04 1010.16 1010.06 1009.88 1010.50 1010.82 1010.82 1011.10 1011.15 1011.32 1011.59 1011.90 1012.18 1012.84 1013.47 1014.15 1014.66 1015.14 1015.60 1015.94 1016.47 1017.08 1018.05 1017.84 1017.74 1018.28 1018.59 1018.83 1019.06 1019.33 1019.63 1019.89 1020.34 1020.87 1021.25 1021.58 1021.86 1022.15 1022.52 1022.78 1023.01 1023.23 1023.37 1023.54
1012.02 1011.98 1011.96 1012.03 1012.08 1012.34 1012.47 1012.57 1012.63 1012.94 1013.61 1013.76 1014.03 1014.49 1015.11 1015.79 1016.29 1016.45 1016.88 1017.55 1018.33 1018.95 1019.31 1019.25 1019.15 1019.55 1019.96 1020.04 1020.17 1020.49 1020.74 1021.08 1021.42 1021.80 1022.11 1022.37 1022.61 1022.91 1023.13 1023.37 1023.61 1023.82 1023.97 1024.17
1013.78 1013.74 1013.81 1014.02 1014.32 1014.45 1014.23 1014.28 1014.39 1014.81 1015.33 1015.38 1015.54 1016.21 1016.72 1017.36 1017.74 1017.98 1018.23 1018.86 1020.10 1020.29 1020.35 1020.33 1020.42 1020.71 1020.85 1021.05 1021.34 1021.63 1021.94 1022.29 1022.53 1022.75 1022.99 1023.26 1023.52 1023.78 1024.03 1024.27 1024.43 1024.50 1024.66 1024.77
1015.38 1015.10 1015.39 1015.71 1015.59 1015.68 1015.96 1016.08 1016.08 1016.30 1016.52 1016.94 1017.53 1017.98 1018.31 1018.83 1019.13 1019.38 1019.88 1020.29 1021.10 1021.30 1021.42 1021.70 1021.92 1021.97 1022.08 1022.28 1022.52 1022.83 1023.05 1023.25 1023.42 1023.63 1023.95 1024.27 1024.55 1024.82 1025.03 1025.14 1025.25 1025.20 1025.20 1025.22
1016.54 1016.61 1016.84 1017.02 1017.07 1017.42 1017.64 1017.66 1017.73 1017.68 1017.94 1018.55 1019.00 1019.28 1019.54 1020.02 1020.37 1020.64 1021.25 1022.10 1022.23 1022.52 1022.76 1023.05 1023.16 1023.22 1023.34 1023.58 1023.80 1023.99 1024.16 1024.34 1024.58 1024.78 1025.03 1025.28 1025.52 1025.69 1025.80 1025.85 1025.73 1025.59 1025.53 1025.57
1017.71 1017.94 1018.19 1018.56 1018.78 1018.88 1018.96 1019.31 1019.30 1019.60 1019.92 1020.23 1020.45 1020.77 1021.01 1021.33 1021.78 1022.29 1022.78 1023.23 1023.54 1023.73 1023.96 1024.13 1024.23 1024.34 1024.51 1024.76 1024.97 1025.13 1025.33 1025.47 1025.69 1025.85 1026.00 1026.19 1026.36 1026.37 1026.37 1026.35 1026.27 1026.18 1026.21 1026.28
1019.60 1019.91 1020.22 1020.38 1020.41 1020.58 1020.71 1020.86 1020.99 1021.28 1021.50 1021.82 1022.09 1022.24 1022.43 1022.67 1022.80 1023.57 1023.90 1024.33 1024.59 1024.81 1025.16 1025.27 1025.38 1025.50 1025.62 1025.77 1025.92 1026.08 1026.22 1026.32 1026.44 1026.58 1026.81 1027.00 1027.09 1027.04 1026.98 1026.93 1026.90 1026.85 1026.79 1026.73
1021.72 1022.01 1022.29 1022.49 1022.65 1022.62 1022.60 1022.54 1022.64 1022.99 1023.21 1023.55 1023.88 1024.06 1024.09 1024.20 1024.46 1024.81 1025.19 1025.50 1025.72 1025.91 1026.20 1026.48 1026.70 1026.80 1026.85 1026.88 1026.94 1027.03 1027.11 1027.14 1027.21 1027.42 1027.59 1027.67 1027.60 1027.52 1027.54 1027.55 1027.51 1027.40 1027.06 1026.51
1023.62 1023.60 1023.72 1023.98 1024.23 1024.31 1024.32 1024.39 1024.54 1024.90 1025.15 1025.38 1025.70 1025.85 1025.74 1025.73 1025.91 1026.17 1026.49 1026.82 1027.09 1027.35 1027.53 1027.75 1027.98 1028.06 1028.04 1027.99 1027.92 1027.90 1027.85 1027.66 1027.41 1027.69 1027.76 1028.16 1028.01 1027.76 1027.70 1027.59 1027.52 1027.32 1026.80 1026.28
Thickness
5608 5617 5624 5627 5630 5632 5632 5629 5616 5628 5635 5650 5654 5664 5665 5668 5670 5672 5670 5671 5679 5678 5672 5670 5672 5671 5671 5664 5658 5648 5637 5628 5623 5615 5607 5603 5595 5590 5586 5578 5570 5569 5559 5552
5595 5609 5619 5619 5622 5632 5638 5630 5628 5635 5633 5662 5665 5665 5664 5664 5667 5670 5669 5673 5674 5679 5673 5668 5666 5661 5653 5646 5645 5642 5631 5618 5612 5607 5602 5595 5587 5582 5576 5568 5561 5556 5547 5541
5568 5600 5605 5593 5627 5624 5626 5630 5632 5619 5638 5660 5661 5665 5666 5666 5669 5669 5671 5671 5672 5672 5673 5670 5665 5662 5655 5642 5636 5631 5624 5615 5609 5604 5595 5586 5577 5572 5563 5553 5548 5543 5535 5529
5540 5557 5564 5628 5628 5631 5625 5634 5639 5640 5643 5654 5659 5670 5666 5670 5673 5671 5672 5672 5671 5671 5669 5663 5658 5654 5650 5641 5629 5621 5612 5608 5601 5594 5584 5576 5571 5560 5552 5549 5542 5533 5524 5516
5525 5544 5584 5605 5616 5618 5613 5624 5642 5644 5645 5651 5658 5661 5666 5671 5674 5674 5673 5674 5668 5670 5662 5655 5649 5643 5638 5631 5625 5618 5609 5601 5593 5587 5578 5568 5556 5551 5542 5536 5527 5520 5512 5502
5504 5518 5540 5599 5615 5629 5629 5602 5641 5642 5642 5643 5652 5630 5640 5665 5672 5669 5667 5663 5656 5651 5647 5642 5635 5632 5627 5619 5612 5604 5599 5589 5581 5573 5563 5554 5548 5540 5532 5525 5517 5507 5497 5488
5507 5517 5543 5582 5600 5622 5591 5609 5632 5636 5640 5642 5637 5640 5657 5658 5657 5658 5657 5653 5647 5645 5640 5631 5624 5617 5609 5601 5596 5590 5582 5575 5567 5559 5551 5543 5534 5527 5520 5512 5502 5490 5478 5468
5508 5522 5531 5581 5595 5585 5583 5593 5605 5617 5623 5635 5642 5645 5643 5651 5646 5644 5640 5638 5636 5633 5625 5621 5617 5610 5597 5587 5582 5574 5565 5556 5549 5542 5537 5529 5522 5514 5505 5495 5482 5470 5460 5448
5526 5534 5547 5573 5587 5583 5580 5585 5597 5603 5609 5619 5624 5629 5633 5633 5633 5634 5633 5626 5623 5619 5609 5602 5601 5599 5589 5578 5571 5560 5551 5541 5533 5526 5519 5513 5507 5496 5486 5476 5465 5453 5443 5429
5530 5560 5555 5568 5570 5581 5585 5590 5598 5602 5606 5609 5606 5614 5615 5622 5619 5619 5617 5613 5606 5601 5591 5582 5582 5579 5573 5563 5557 5547 5535 5525 5518 5509 5499 5490 5483 5475 5465 5455 5446 5436 5425 5413
5539 5548 5559 5567 5573 5580 5587 5592 5599 5598 5600 5598 5597 5599 5607 5608 5604 5604 5602 5595 5592 5586 5579 5571 5568 5561 5556 5549 5543 5531 5520 5508 5497 5487 5477 5464 5453 5445 5438 5430 5426 5417 5405 5395
5534 5548 5552 5561 5579 5587 5584 5588 5588 5589 5594 5592 5591 5594 5598 5597 5596 5593 5590 5578 5573 5567 5561 5552 5546 5541 5535 5529 5524 5514 5498 5486 5475 5465 5455 5444 5433 5420 5413 5406 5399 5391 5381 5373
5510 5525 5548 5553 5559 5567 5571 5574 5578 5579 5582 5583 5592 5593 5587 5581 5575 5568 5568 5559 5554 5543 5534 5525 5518 5513 5511 5508 5500 5490 5477 5465 5452 5443 5433 5423 5412 5403 5392 5380 5374 5366 5357 5348
5499 5525 5537 5533 5541 5545 5549 5554 5557 5557 5556 5559 5572 5581 5573 5562 5559 5551 5537 5526 5520 5512 5504 5499 5494 5483 5479 5479 5472 5461 5451 5441 5432 5420 5410 5400 5391 5381 5373 5364 5355 5345 5335 5326
5483 5501 5508 5519 5525 5527 5532 5536 5529 5522 5518 5521 5531 5545 5546 5537 5523 5510 5501 5496 5494 5486 5476 5473 5468 5456 5450 5452 5447 5435 5428 5413 5402 5393 5385 5377 5368 5358 5350 5342 5334 5325 5314 5304
5474 5480 5490 5494 5490 5496 5503 5504 5496 5488 5488 5488 5490 5490 5490 5487 5479 5470 5464 5460 5459 5453 5447 5443 5437 5429 5428 5425 5414 5402 5394 5385 5379 5369 5359 5352 5344 5335 5326 5317 5309 5302 5294 5284
5462 5469 5473 5479 5470 5467 5466 5466 5466 5461 5459 5459 5457 5456 5454 5451 5446 5437 5429 5428 5423 5418 5417 5413 5404 5400 5396 5391 5386 5376 5368 5360 5350 5341 5333 5325 5318 5309 5300 5291 5283 5276 5266 5257
5435 5439 5447 5450 5449 5443 5439 5440 5438 5436 5435 5432 5431 5431 5427 5423 5417 5410 5402 5397 5395 5389 5384 5379 5376 5371 5367 5364 5358 5351 5342 5335 5326 5317 5306 5298 5290 5282 5273 5266 5258 5250 5242 5235
5412 5413 5415 5417 5415 5413 5415 5414 5414 5414 5413 5411 5409 5404 5398 5393 5388 5384 5380 5376 5370 5363 5353 5352 5351 5344 5339 5334 5328 5322 5315 5309 5300 5291 5282 5274 5267 5260 5251 5243 5235 5226 5219 5211
5387 5388 5389 5390 5391 5392 5392 5392 5393 5391 5386 5384 5382 5378 5373 5367 5362 5360 5355 5348 5341 5334 5329 5326 5325 5318 5311 5306 5301 5294 5288 5280 5273 5265 5257 5250 5244 5235 5228 5221 5212 5203 5194 5184
5367 5368 5369 5367 5365 5364 5366 5367 5367 5364 5361 5360 5359 5352 5347 5341 5337 5333 5330 5324 5311 5307 5304 5301 5297 5291 5286 5280 5274 5267 5260 5253 5246 5240 5233 5225 5218 5210 5201 5192 5184 5174 5165 5154
5348 5351 5349 5346 5347 5347 5345 5344 5344 5342 5341 5337 5331 5326 5322 5316 5312 5308 5303 5298 5288 5283 5279 5274 5268 5264 5260 5254 5248 5241 5235 5228 5221 5215 5206 5198 5189 5180 5170 5161 5152 5143 5132 5121
5332 5332 5330 5328 5327 5323 5321 5321 5319 5319 5317 5311 5306 5303 5299 5294 5289 5285 5277 5267 5264 5258 5253 5247 5243 5238 5233 5227 5220 5214 5207 5200 5193 5184 5175 5166 5157 5148 5139 5131 5122 5114 5104 5095
5318 5316 5314 5308 5305 5305 5302 5298 5297 5293 5289 5285 5282 5277 5274 5268 5262 5255 5248 5242 5236 5231 5226 5221 5216 5211 5205 5198 5191 5184 5176 5169 5160 5150 5142 5134 5124 5115 5107 5099 5092 5085 5077 5068
5294 5290 5286 5283 5282 5279 5279 5276 5273 5269 5265 5260 5256 5252 5248 5243 5239 5229 5223 5216 5210 5204 5198 5192 5187 5181 5174 5167 5160 5153 5146 5139 5131 5123 5113 5104 5095 5087 5080 5074 5066 5059 5051 5042
5268 5263 5259 5257 5254 5253 5253 5252 5248 5243 5239 5233 5227 5222 5219 5214 5208 5201 5194 5188 5183 5177 5171 5165 5158 5151 5145 5139 5132 5124 5118 5111 5103 5095 5087 5080 5072 5065 5057 5050 5042 5034 5027 5020
5241 5240 5238 5233 5229 5226 5223 5220 5215 5210 5204 5198 5194 5190 5187 5183 5177 5171 5164 5157 5151 5145 5140 5134 5128 5122 5116 5111 5105 5099 5093 5087 5081 5075 5068 5061 5054 5046 5039 5030 5021 5013 5007 4999